Starlink 11471

operational
NORAD ID: 62225 Int'l Des: 2024-231 Owner: SPXS Country: US Constellation: starlink
LEOCIRCULAR

About Starlink 11471

Description loading...

Live Position

Loading 3D Globe...

Upcoming Passes

Altitude History

Altitude vs Time

uPlot chart will show altitude changes over time

Two-Line Element Set

1 62225U 24231H 26036.85003761 .00121344 00000-0 99123-3 0 9998
2 62225 53.1567 258.0191 0001662 34.6586 325.4540 15.69724780 68410
Epoch: Feb 5, 2026 • Age: 10 hours

Current Status

Altitude 360.3 km
Velocity 7.70 km/s
Sub-Earth Point 17.76°N, 167.77°W
Launch Date Dec 5, 2024
Age 1.1 years
Type internet

Technical Details

Classification Payload
Mass 960.00 kg
Dry Mass 910.00 kg
Total Mass 960.00 kg
Length 0.30 m
Diameter 4.10 m
Span 29.00 m
Shape Box + pan
Manufacturer SPXS
Bus Type Starlink V2MD
Phase Status In Orbit
Owner/State SPXS/US

Large Constellations

Loading constellations...